Home > Weather > San Francisco > Past weeks

Flag for USA Weather for the Past 2 Weeks in San Francisco, California, USA

Now
59 °F

Partly sunny.


Feels Like: 58 °F
Forecast: 54 / 64 °F
Wind: 8 mph from Northwest

Location: San Francisco International Airport

Current Time: May 3, 2016 at 11:36:20 AM

Latest Report: May 3, 2016 at 10:56 AM


Visibility: 9 mi

Pressure: 30.00 "Hg

Humidity: 78%

Dew Point: 52 °F

Location of San FranciscoLocation

Historic Weather in San Francisco — Graph

°F

San Francisco Temperature Yesterday

Maximum temperature yesterday: 63 °F (at 12:56 PM)
Minimum temperature yesterday: 51 °F (at 5:56 AM)
Average temperature yesterday: 56 °F

High & Low Weather Summary for the Past Weeks

 TemperatureHumidityPressure
High80 °F (May 1, 2:56 PM)100% (May 3, 1:56 AM)30.22 "Hg (May 3, 1:56 AM)
Low47 °F (Apr 25, 5:56 AM)28% (May 1, 2:56 PM)29.80 "Hg (May 1, 4:56 AM)
Average59 °F65%29.98 "Hg
* Reported Apr 18 9:56 AM — May 3 9:56 AM, San Francisco, Weather by CustomWeather, © 2016

Note: Actual official high and low records may vary slightly from our data, if they occured in-between our weather recording intervals... More about our weather records

Advertising

San Francisco Weather History for the Previous 24 Hours

Scroll right to see more
 ConditionsComfort  
Time TempWeatherWind HumidityBarometerVisibility
9:56 AM
Tue, May 3
56 °FPartly sunny.10 mph84%30.00 "Hg9 mi
8:56 AM55 °FBroken clouds.12 mph87%30.01 "Hg9 mi
7:56 AM54 °FLow clouds.13 mph90%30.01 "Hg8 mi
6:56 AM54 °FLow clouds.No wind93%29.99 "Hg9 mi
5:56 AM53 °FMostly cloudy.No wind96%29.98 "Hg10 mi
4:56 AM52 °FMostly cloudy.5 mph97%29.99 "Hg10 mi
3:56 AM52 °FMostly cloudy.7 mph97%30.01 "Hg10 mi
2:56 AM51 °FOvercast.10 mph100%30.01 "Hg10 mi
1:56 AM51 °FPassing clouds.10 mph100%30.03 "Hg10 mi
12:56 AM52 °FPassing clouds.12 mph93%30.04 "Hg10 mi
11:56 PM
Mon, May 2
52 °FPartly cloudy.12 mph93%30.05 "Hg10 mi
10:56 PM52 °FPassing clouds.13 mph93%30.05 "Hg10 mi
9:56 PM52 °FPassing clouds.13 mph97%30.04 "Hg10 mi
8:56 PM53 °FScattered clouds.16 mph93%30.03 "Hg10 mi
7:56 PM54 °FPartly sunny.16 mph90%30.01 "Hg10 mi
6:56 PM57 °FPartly sunny.16 mph81%30.00 "Hg10 mi
5:56 PM58 °FPartly sunny.21 mph81%30.01 "Hg10 mi
4:56 PM60 °FPartly sunny.20 mph75%30.02 "Hg10 mi
3:56 PM61 °FPartly sunny.22 mph75%30.02 "Hg10 mi
2:56 PM62 °FPartly sunny.22 mph75%30.03 "Hg10 mi
1:56 PM63 °FScattered clouds.17 mph73%30.04 "Hg10 mi
12:56 PM63 °FScattered clouds.9 mph78%30.05 "Hg10 mi
11:56 AM61 °FScattered clouds.8 mph78%30.06 "Hg10 mi
Weather by CustomWeather, © 2016

See weather overviewHow to use our weather pages